Location: *
(28.3744°N, 81.5492°W)
Time: 03:45:30
(UTC+00:00)

USA 234 - Pass Details

Date: 15 June 2025
Orbit: 1097 x 1111 km, 123.0° (Epoch: 19 June)

Event Time Altitude Azimuth Distance (km) Brightness Sun altitude
Rises 06:04:07 0° 29° (NNE) 3,914 7.0 -37.5°
Reaches altitude 10° 06:06:50 10° 21° (NNE) 2,956 6.2 -37.4°
Maximum altitude 06:12:30 33° 320° (NW) 1,770 4.5 -37.1°
Enters shadow 06:13:07 32° 309° (NW) 1,789 4.4 -37.1°
